Copper Harbor, MI

1:04 PM EDT on August 23, 2017 (GMT -0400)
Copper Harbor

Weather History for KP59 - June, 2013

Change the Weather History Date:

Saturday, June 15, 2013

  Actual Average Record
Temperature  
Mean Temperature 55 °F -  
Max Temperature 66 °F 62 °F 84 °F (2007)
Min Temperature 46 °F 45 °F 42 °F (1999)
Degree Days  
Heating Degree Days 10    
Growing Degree Days 5 (Base 50)    
Moisture  
Dew Point 45 °F    
Average Humidity 68    
Maximum Humidity 97    
Minimum Humidity 40    
Precipitation  
Precipitation 0.00 in - - ()
Sea Level Pressure  
Sea Level Pressure 29.89 in    
Wind  
Wind Speed 7 mph (WSW)    
Max Wind Speed 13 mph    
Max Gust Speed 24 mph    
Averages and records for this station are not official NWS values.
T = Trace of Precipitation, MM = Missing Value Source: NWS Daily Summary

Daily Weather History Graph

Daily Weather History Graph

Search for Another Location

Airport or City:

Trip Planner

Search our weather history database for the weather conditions in past years. The results will help you decide how hot, cold, wet, or windy it might be!

Date:

Astronomy

Jun. 15, 2013 Rise Set
Actual Time 5:53 AM EDT 9:50 PM EDT
Civil Twilight 5:13 AM EDT 10:30 PM EDT
Nautical Twilight 4:17 AM EDT 11:26 PM EDT
Astronomical Twilight 2:51 AM EDT 12:54 AM EDT
Moon 12:53 PM EDT (6/15) 1:02 AM EDT (6/15)
Length of Visible Light 17h 17m
Length of Day
15h 56m
Waxing Crescent, 39% of the Moon is Illuminated
Jun 15
Waxing Crescent
Jun 16
First Quarter
Jun 23
Full
Jun 30
Last Quarter
Jul 8
New

Hourly Weather History & Observations

Time (EDT) Temp. Dew Point Humidity Pressure Visibility Wind Dir Wind Speed Gust Speed Precip Events Conditions
12:51 AM 52.0 °F 34.0 °F 50% 29.98 in - WSW 12.7 mph 21.9 mph N/A   Unknown
1:51 AM 52.0 °F 33.1 °F 49% 29.96 in - SW 12.7 mph 21.9 mph N/A   Unknown
2:51 AM 54.0 °F 30.0 °F 40% 29.96 in - SW 10.4 mph 19.6 mph N/A   Unknown
3:51 AM 53.1 °F 32.0 °F 45% 29.95 in - West 3.5 mph - N/A   Unknown
4:51 AM 53.1 °F 34.0 °F 48% 29.92 in - SW 11.5 mph 18.4 mph N/A   Unknown
5:51 AM 53.1 °F 34.0 °F 48% 29.94 in - Calm Calm - N/A   Unknown
6:51 AM 54.0 °F 36.0 °F 51% 29.95 in - SW 6.9 mph - N/A   Unknown
7:51 AM 55.9 °F 41.0 °F 57% 29.94 in - Calm Calm - N/A   Unknown
8:51 AM 59.0 °F 46.9 °F 64% 29.93 in - Calm Calm - N/A   Unknown
9:51 AM 46.9 °F 42.1 °F 83% 29.94 in - Calm Calm - N/A   Unknown
10:51 AM 48.0 °F 42.1 °F 80% 29.94 in - Calm Calm - N/A   Unknown
11:51 AM 59.0 °F 46.9 °F 64% 29.89 in - Calm Calm - N/A   Unknown
12:51 PM 63.0 °F 45.0 °F 52% 29.87 in - SW 10.4 mph 18.4 mph N/A   Unknown
1:51 PM 64.9 °F 52.0 °F 63% 29.87 in - WSW 9.2 mph 19.6 mph N/A   Unknown
2:51 PM 63.0 °F 52.0 °F 67% 29.86 in - WSW 9.2 mph 18.4 mph N/A   Unknown
3:51 PM 64.9 °F 55.0 °F 70% 29.87 in - Variable 5.8 mph - N/A   Unknown
4:51 PM 51.1 °F 46.9 °F 86% 29.87 in - North 4.6 mph - N/A   Unknown
5:51 PM 55.0 °F 51.1 °F 86% 29.86 in - Calm Calm - N/A   Unknown
6:51 PM 55.0 °F 53.1 °F 93% 29.85 in - Calm Calm - N/A   Unknown
7:51 PM 57.0 °F 53.1 °F 87% 29.82 in - Calm Calm - N/A   Unknown
8:51 PM 62.1 °F 55.0 °F 78% 29.78 in - SW 8.1 mph - N/A   Unknown
9:51 PM 57.0 °F 53.1 °F 87% 29.77 in - WSW 9.2 mph 24.2 mph N/A   Unknown
10:51 PM 55.9 °F 52.0 °F 87% 29.79 in - Calm Calm - N/A   Unknown
11:51 PM 48.9 °F 48.0 °F 97% 29.80 in - Calm Calm - N/A   Unknown